Showing default

KINEIS-5C, 62081

Orbit data source: Space-Track

KINEIS-5C, 62081 is a French payload satellite in SSO that was launched on Mon, 25 Nov 2024 UTC via an ELECTRON launch vehicle from the Rocket Lab Launch Complex (RLLC). Payload-class satellites include a variety of spacecraft equipped with specific instruments for various scientific and technological missions. These include communications satellites like Starlink; space stations such as the ISS; scientific satellites like the Hubble; Earth observation satellites from companies like Planet Labs, Umbra, and HawkEye 360; GPS; miniature CubeSats for education and research; and military/defense satellites.

Loading next visibility...
Identifier
62081, 2024-219A
Orbit
SSO
Last TLE update
5 hours ago
Origin
Manufacturer
KINEIS
Mission
Operational Commercial Communications
Bus & Motor
CUBESAT 16U, Unknown motor
Mass
28 kg wet, 28 kg dry
Launch date (UTC)
2024-11-25 (7 months ago)
Launch vehicle
ELECTRON
Launch site
Rocket Lab Launch Complex (RLLC)
Object type
Payload
Rocket body
Debris
Shape & HBR
Box + 2 Pan + 1 Ant, 1.6 m
Radar Cross Section
0.229 m², Medium (>0.1 m² and < 1m²)

Expand to show TLE details & history

TLE from 5 hours ago
0 KINEIS-5C
1 62081U 24219A   25186.52230437  .00000603  00000-0  10329-3 0  9990
2 62081  97.9724 347.4226 0002659  67.9024 292.2466 14.72224096 32749
Epoch: 2025-07-05T12:32Z
TLE epoch observation values (Epoch: 2025-07-05T12:32:07.097Z)
Latitude
0.00001°
Longitude
-124.36611°
Altitude
656.278 km
Speed
7.53 km/s
True Right ascension
23h 09m 41s
True Declination
0° 00' 00"
Sunlit
Object was in full shadow at epoch
Visualization orbit readout
Latitude
-39.28307°
Longitude
-117.63091°
Altitude
669.533 km
Speed
7.521 km/s
Apparent Right ascension
20h 37m 25s
Apparent Declination
-50° 56' 40"
Sunlit
Object is in full shadow
Visualization observer readout
Local Sidereal Time
05:10:18
Azimuth
235.089° WSW
Elevation
-52.869°
Doppler factor
1
Orbital elements
Apogee altitude
652.9 km
Perigee altitude
649.162 km
Semi-major axis
7,029.168 km
Eccentricity
0.00027
Inclination
97.9724°
RAAN
347.4226°
Arg. of periapsis
67.9024°
True anomaly
Unknown
Mean anomaly
292.2466°
Eccentric anomaly
Unknown
Mean motion
3.68288 °/min
Orbital period
97.75 mins
BSTAR
0.00010329
Loading maneuver chart data...
Loading SW <> Apogee altitude chart data...
Loading historical data...
Loading historical data...
Loading historical data...
Loading historical data...
Loading historical data...
Loading historical data...
Loading historical data...

KINEIS-5C Visibility forecast

Observer location: undefined°, undefined°

Span
Click to sort rows by Start time (UTC) header in descending order
Start Az.
Max El. time (UTC)
Max El. Az.
Max El.
End time (UTC)
End Az.
7 mins2025-07-05 22:53:57.967Z37.018° NE2025-07-05 22:57:57.967Z104.46° ESE25.824°2025-07-05 23:00:57.967Z152.852° SSE
5 mins2025-07-06 00:31:57.967Z333.748° NNW2025-07-06 00:33:57.967Z299.059° NW22.747°2025-07-06 00:36:57.967Z245.984° WSW
5 mins2025-07-06 09:53:57.967Z108.958° ESE2025-07-06 09:55:57.967Z73.161° E22.923°2025-07-06 09:58:57.967Z21.119° NNE
5 mins2025-07-06 11:30:57.967Z223.868° SW2025-07-06 11:32:57.967Z266.725° W25.843°2025-07-06 11:35:57.967Z318.301° NNW
|